Find Starlink 4497

NORAD ID: 53411 Int'l Des: 2022-097 Owner: SPXS Country: US Constellation: starlink operational
LEOCIRCULAR

Live Position

Loading 3D Globe...

About Starlink 4497

Description loading...

Upcoming Passes

Passes for default location (London). Set your location on the main map for personalized predictions.

Altitude History

Loading altitude history...

Two-Line Element Set

1 53411U 22097Z 26123.56376286 .00000434 00000-0 45371-4 0 9996
2 53411 53.2177 227.7798 0001258 91.0543 269.0593 15.08845089206933
Epoch: May 3, 2026 • Age: 12 hours

Current Status

Altitude 539.9 km
Velocity 7.59 km/s
Sub-Earth Point 6.23°N, 157.67°E
Launch Date Aug 10, 2022
Age 3.7 years
Type internet

Technical Details

Classification Payload
Mass 297.00 kg
Dry Mass 275.00 kg
Total Mass 297.00 kg
Length 0.20 m
Diameter 2.80 m
Span 9.00 m
Shape Box + pan
Manufacturer SPXS
Bus Type Starlink
Phase Status In Orbit
Owner/State SPXS/US

Most Searched